| time (UTC) | temp F | wind direction | speed MPH | gust MPH | rain 1hr in | rain 24hr in | rain mn in | humidity % | barometer mb |
| 20260510164104 | 73 | 280 | 1.0 | 2.0 | 0.00 | 0.00 | 0.00 | 57 | 1010.9 |
| 20260510163554 | 71 | 271 | 0.0 | 1.0 | 0.00 | 0.00 | 0.00 | 61 | 1010.9 |
| 20260510163050 | 71 | 270 | 1.0 | 2.0 | 0.00 | 0.00 | 0.00 | 61 | 1010.8 |
| 20260510162545 | 71 | 231 | 1.0 | 1.0 | 0.00 | 0.00 | 0.00 | 61 | 1011.0 |
| 20260510162042 | 71 | 224 | 1.0 | 2.0 | 0.00 | 0.00 | 0.00 | 61 | 1011.1 |
| 20260510161537 | 71 | 281 | 1.0 | 1.0 | 0.00 | 0.00 | 0.00 | 61 | 1011.1 |
| 20260510161034 | 72 | 133 | 0.0 | 1.0 | 0.00 | 0.00 | 0.00 | 60 | 1011.1 |
| 20260510160526 | 72 | 231 | 2.0 | 2.0 | 0.00 | 0.00 | 0.00 | 59 | 1011.1 |
| 20260510160026 | 71 | 289 | 0.0 | 0.0 | 0.00 | 0.00 | 0.00 | 62 | 1011.1 |
| 20260510155522 | 70 | 260 | 2.0 | 3.0 | 0.00 | 0.00 | 0.00 | 63 | 1011.3 |
| 20260510155019 | 70 | 243 | 2.0 | 2.0 | 0.00 | 0.00 | 0.00 | 63 | 1011.3 |
| 20260510154515 | 69 | 274 | 0.0 | 0.0 | 0.00 | 0.00 | 0.00 | 66 | 1011.3 |
| 20260510154014 | 68 | 234 | 1.0 | 1.0 | 0.00 | 0.00 | 0.00 | 66 | 1011.3 |
| 20260510153510 | 68 | 279 | 2.0 | 3.0 | 0.00 | 0.00 | 0.00 | 70 | 1011.3 |
| 20260510153007 | 69 | 325 | 0.0 | 0.0 | 0.00 | 0.00 | 0.00 | 69 | 1011.2 |
| 20260510152504 | 70 | 284 | 2.0 | 2.0 | 0.00 | 0.00 | 0.00 | 68 | 1011.0 |
| 20260510152000 | 69 | 187 | 2.0 | 2.0 | 0.00 | 0.00 | 0.00 | 67 | 1011.0 |
| 20260510151457 | 68 | 328 | 2.0 | 2.0 | 0.00 | 0.00 | 0.00 | 69 | 1011.0 |
| 20260510150954 | 69 | 264 | 1.0 | 1.0 | 0.00 | 0.00 | 0.00 | 68 | 1011.1 |
| 20260510150449 | 68 | 294 | 1.0 | 1.0 | 0.00 | 0.00 | 0.00 | 69 | 1011.2 |
| 20260510145945 | 67 | 303 | 2.0 | 2.0 | 0.00 | 0.00 | 0.00 | 71 | 1011.0 |
| 20260510145442 | 66 | 305 | 1.0 | 1.0 | 0.00 | 0.00 | 0.00 | 76 | 1011.0 |
| 20260510144939 | 67 | 257 | 1.0 | 1.0 | 0.00 | 0.00 | 0.00 | 75 | 1011.0 |
| 20260510144436 | 66 | 72 | 2.0 | 2.0 | 0.00 | 0.00 | 0.00 | 75 | 1011.1 |
| 20260510143931 | 66 | 13 | 1.0 | 2.0 | 0.00 | 0.00 | 0.00 | 76 | 1011.1 |
| 20260510143427 | 66 | 286 | 0.0 | 0.0 | 0.00 | 0.00 | 0.00 | 76 | 1011.1 |
| 20260510142924 | 64 | 296 | 1.0 | 1.0 | 0.00 | 0.00 | 0.00 | 80 | 1011.2 |
| 20260510142421 | 64 | 314 | 0.0 | 1.0 | 0.00 | 0.00 | 0.00 | 80 | 1011.1 |
| 20260510141917 | 63 | 77 | 1.0 | 2.0 | 0.00 | 0.00 | 0.00 | 81 | 1011.1 |
| 20260510141414 | 62 | 0 | 1.0 | 1.0 | 0.00 | 0.00 | 0.00 | 83 | 1011.1 |
| 20260510140912 | 62 | 5 | 2.0 | 2.0 | 0.00 | 0.00 | 0.00 | 83 | 1011.2 |
| 20260510140408 | 62 | 312 | 0.0 | 1.0 | 0.00 | 0.00 | 0.00 | 84 | 1011.1 |
| 20260510135907 | 61 | 33 | 1.0 | 2.0 | 0.00 | 0.00 | 0.00 | 85 | 1011.1 |
| 20260510135403 | 62 | 1 | 1.0 | 1.0 | 0.00 | 0.00 | 0.00 | 83 | 1011.2 |
| 20260510134900 | 61 | 306 | 0.0 | 0.0 | 0.00 | 0.00 | 0.00 | 86 | 1011.4 |
| 20260510134357 | 60 | 340 | 0.0 | 0.0 | 0.00 | 0.00 | 0.00 | 88 | 1011.3 |
| 20260510133853 | 60 | 28 | 1.0 | 1.0 | 0.00 | 0.00 | 0.00 | 86 | 1011.2 |
| 20260510133349 | 60 | 290 | 1.0 | 2.0 | 0.00 | 0.00 | 0.00 | 87 | 1011.5 |
| 20260510132845 | 60 | 300 | 0.0 | 0.0 | 0.00 | 0.00 | 0.00 | 87 | 1011.4 |
| 20260510132343 | 60 | 339 | 0.0 | 1.0 | 0.00 | 0.00 | 0.00 | 88 | 1011.5 |
| 20260510131840 | 59 | 13 | 1.0 | 2.0 | 0.00 | 0.00 | 0.00 | 88 | 1011.3 |
| 20260510131338 | 58 | 300 | 1.0 | 1.0 | 0.00 | 0.00 | 0.00 | 93 | 1011.3 |
| 20260510130834 | 57 | 284 | 0.0 | 0.0 | 0.00 | 0.00 | 0.00 | 97 | 1011.3 |
| 20260510130331 | 57 | 280 | 0.0 | 1.0 | 0.00 | 0.00 | 0.00 | 99 | 1011.4 |
| 20260510125827 | 55 | 216 | 1.0 | 1.0 | 0.00 | 0.00 | 0.00 | 99 | 1011.3 |
| 20260510125324 | 55 | 289 | 0.0 | 0.0 | 0.00 | 0.00 | 0.00 | 99 | 1011.4 |
| 20260510124820 | 54 | 300 | 0.0 | 0.0 | 0.00 | 0.00 | 0.00 | 99 | 1011.5 |
| 20260510124318 | 54 | 300 | 0.0 | 0.0 | 0.00 | 0.00 | 0.00 | 99 | 1011.3 |
| 20260510123813 | 54 | 300 | 0.0 | 0.0 | 0.00 | 0.00 | 0.00 | 99 | 1011.3 |
| 20260510123309 | 54 | 300 | 0.0 | 0.0 | 0.00 | 0.00 | 0.00 | 99 | 1011.2 |
| 20260510122805 | 54 | 300 | 0.0 | 0.0 | 0.00 | 0.00 | 0.00 | 99 | 1011.0 |
| 20260510122301 | 54 | 300 | 0.0 | 0.0 | 0.00 | 0.00 | 0.00 | 99 | 1010.9 |
| 20260510121758 | 54 | 300 | 0.0 | 0.0 | 0.00 | 0.00 | 0.00 | 99 | 1011.0 |
| 20260510121256 | 54 | 302 | 0.0 | 0.0 | 0.00 | 0.00 | 0.00 | 99 | 1010.9 |
| 20260510120753 | 53 | 302 | 0.0 | 0.0 | 0.00 | 0.00 | 0.00 | 99 | 1010.7 |
| 20260510120249 | 53 | 302 | 0.0 | 0.0 | 0.00 | 0.00 | 0.00 | 99 | 1010.8 |
| 20260510115745 | 53 | 302 | 0.0 | 0.0 | 0.00 | 0.00 | 0.00 | 99 | 1010.6 |
| 20260510115243 | 53 | 302 | 0.0 | 0.0 | 0.00 | 0.00 | 0.00 | 99 | 1010.9 |
| 20260510114738 | 53 | 302 | 0.0 | 0.0 | 0.00 | 0.00 | 0.00 | 99 | 1010.7 |
| 20260510114236 | 54 | 302 | 0.0 | 0.0 | 0.00 | 0.00 | 0.00 | 99 | 1010.7 |
| 20260510113731 | 53 | 280 | 0.0 | 0.0 | 0.00 | 0.00 | 0.00 | 99 | 1010.5 |
| 20260510113228 | 53 | 277 | 0.0 | 0.0 | 0.00 | 0.00 | 0.00 | 99 | 1010.7 |
| 20260510112724 | 53 | 282 | 0.0 | 0.0 | 0.00 | 0.00 | 0.00 | 99 | 1010.5 |
| 20260510112221 | 53 | 282 | 0.0 | 0.0 | 0.00 | 0.00 | 0.00 | 99 | 1010.5 |
| 20260510111717 | 52 | 313 | 0.0 | 0.0 | 0.00 | 0.00 | 0.00 | 99 | 1010.2 |
| 20260510111215 | 53 | 271 | 0.0 | 0.0 | 0.00 | 0.00 | 0.00 | 99 | 1010.3 |
| 20260510110714 | 52 | 262 | 0.0 | 0.0 | 0.00 | 0.00 | 0.00 | 99 | 1010.1 |
| 20260510110212 | 52 | 279 | 0.0 | 1.0 | 0.00 | 0.00 | 0.00 | 99 | 1010.4 |
| 20260510105712 | 52 | 277 | 0.0 | 0.0 | 0.00 | 0.00 | 0.00 | 99 | 1010.1 |
| 20260510105206 | 52 | 277 | 0.0 | 0.0 | 0.00 | 0.00 | 0.00 | 99 | 1010.0 |
| 20260510104703 | 51 | 305 | 2.0 | 2.0 | 0.00 | 0.00 | 0.00 | 99 | 1010.2 |
| 20260510104200 | 51 | 302 | 0.0 | 0.0 | 0.00 | 0.00 | 0.00 | 99 | 1009.9 |
| 20260510103657 | 51 | 302 | 0.0 | 0.0 | 0.00 | 0.00 | 0.00 | 99 | 1009.8 |
| 20260510103154 | 51 | 291 | 0.0 | 0.0 | 0.00 | 0.00 | 0.00 | 99 | 1010.0 |
| 20260510102654 | 51 | 264 | 0.0 | 1.0 | 0.00 | 0.00 | 0.00 | 99 | 1010.0 |
| 20260510102150 | 51 | 283 | 0.0 | 1.0 | 0.00 | 0.00 | 0.00 | 99 | 1009.9 |
| 20260510101647 | 51 | 268 | 1.0 | 1.0 | 0.00 | 0.00 | 0.00 | 99 | 1009.8 |
| 20260510101146 | 51 | 288 | 0.0 | 0.0 | 0.00 | 0.00 | 0.00 | 99 | 1009.8 |
| 20260510100641 | 51 | 288 | 1.0 | 1.0 | 0.00 | 0.00 | 0.00 | 99 | 1009.7 |
| 20260510100139 | 51 | 288 | 0.0 | 0.0 | 0.00 | 0.00 | 0.00 | 99 | 1009.6 |
| 20260510095635 | 50 | 288 | 0.0 | 0.0 | 0.00 | 0.00 | 0.00 | 99 | 1009.6 |
| 20260510095131 | 50 | 288 | 0.0 | 0.0 | 0.00 | 0.00 | 0.00 | 99 | 1009.7 |
| 20260510094629 | 50 | 287 | 0.0 | 0.0 | 0.00 | 0.00 | 0.00 | 99 | 1009.7 |
| 20260510094126 | 50 | 288 | 0.0 | 0.0 | 0.00 | 0.00 | 0.00 | 99 | 1009.4 |
| 20260510093622 | 51 | 284 | 0.0 | 0.0 | 0.00 | 0.00 | 0.00 | 99 | 1009.4 |
| 20260510093119 | 50 | 290 | 2.0 | 2.0 | 0.00 | 0.00 | 0.00 | 99 | 1009.2 |
| 20260510092615 | 50 | 257 | 0.0 | 0.0 | 0.00 | 0.00 | 0.00 | 99 | 1009.5 |
| 20260510092115 | 50 | 257 | 1.0 | 1.0 | 0.00 | 0.00 | 0.00 | 99 | 1009.3 |
| 20260510091612 | 50 | 257 | 0.0 | 0.0 | 0.00 | 0.00 | 0.00 | 99 | 1009.4 |
| 20260510091108 | 50 | 261 | 0.0 | 0.0 | 0.00 | 0.00 | 0.00 | 99 | 1009.3 |
| 20260510090605 | 50 | 274 | 0.0 | 0.0 | 0.00 | 0.00 | 0.00 | 99 | 1009.5 |
| 20260510090101 | 50 | 279 | 1.0 | 1.0 | 0.00 | 0.00 | 0.00 | 99 | 1009.3 |
| 20260510085556 | 50 | 293 | 1.0 | 1.0 | 0.00 | 0.00 | 0.00 | 99 | 1009.5 |
| 20260510085052 | 50 | 297 | 0.0 | 0.0 | 0.00 | 0.00 | 0.00 | 99 | 1009.3 |
| 20260510084549 | 50 | 271 | 0.0 | 0.0 | 0.00 | 0.00 | 0.00 | 99 | 1009.4 |
| 20260510084045 | 50 | 271 | 0.0 | 0.0 | 0.00 | 0.00 | 0.00 | 99 | 1009.6 |
| 20260510083542 | 50 | 271 | 0.0 | 0.0 | 0.00 | 0.00 | 0.00 | 99 | 1009.7 |
| 20260510083038 | 51 | 271 | 0.0 | 0.0 | 0.00 | 0.00 | 0.00 | 99 | 1010.0 |
| 20260510082535 | 51 | 271 | 0.0 | 0.0 | 0.00 | 0.00 | 0.00 | 99 | 1009.7 |
| 20260510082031 | 51 | 304 | 0.0 | 0.0 | 0.00 | 0.00 | 0.00 | 99 | 1009.9 |
| 20260510081526 | 50 | 304 | 0.0 | 0.0 | 0.00 | 0.00 | 0.00 | 99 | 1009.9 |
| 20260510081022 | 50 | 304 | 0.0 | 0.0 | 0.00 | 0.00 | 0.00 | 99 | 1009.9 |
| 20260510080521 | 50 | 304 | 0.0 | 0.0 | 0.00 | 0.00 | 0.00 | 99 | 1010.1 |
| 20260510080018 | 50 | 304 | 0.0 | 0.0 | 0.00 | 0.00 | 0.00 | 99 | 1010.3 |
| 20260510075515 | 50 | 261 | 0.0 | 0.0 | 0.00 | 0.00 | 0.00 | 99 | 1010.2 |
| 20260510075012 | 50 | 260 | 1.0 | 1.0 | 0.00 | 0.00 | 0.00 | 99 | 1010.4 |
| 20260510074510 | 50 | 260 | 0.0 | 1.0 | 0.00 | 0.00 | 0.00 | 99 | 1010.4 |
| 20260510074005 | 50 | 260 | 0.0 | 0.0 | 0.00 | 0.00 | 0.00 | 99 | 1010.3 |
| 20260510073501 | 50 | 261 | 0.0 | 0.0 | 0.00 | 0.00 | 0.00 | 99 | 1010.4 |
| 20260510072958 | 50 | 260 | 1.0 | 1.0 | 0.00 | 0.00 | 0.00 | 99 | 1010.5 |
| 20260510072455 | 50 | 260 | 0.0 | 1.0 | 0.00 | 0.00 | 0.00 | 99 | 1010.5 |
| 20260510071950 | 49 | 260 | 0.0 | 0.0 | 0.00 | 0.00 | 0.00 | 99 | 1010.7 |
| 20260510071447 | 49 | 259 | 0.0 | 1.0 | 0.00 | 0.00 | 0.00 | 99 | 1010.5 |
| 20260510070945 | 50 | 259 | 1.0 | 1.0 | 0.00 | 0.00 | 0.00 | 99 | 1010.7 |
| 20260510070442 | 49 | 263 | 0.0 | 0.0 | 0.00 | 0.00 | 0.00 | 99 | 1010.5 |
| 20260510065938 | 49 | 262 | 0.0 | 0.0 | 0.00 | 0.00 | 0.00 | 99 | 1010.1 |
| 20260510065435 | 49 | 262 | 0.0 | 0.0 | 0.00 | 0.00 | 0.00 | 99 | 1010.0 |
| 20260510064931 | 49 | 263 | 0.0 | 0.0 | 0.00 | 0.00 | 0.00 | 99 | 1010.0 |
| 20260510064428 | 49 | 263 | 0.0 | 0.0 | 0.00 | 0.00 | 0.00 | 99 | 1009.9 |
| 20260510063925 | 49 | 261 | 0.0 | 0.0 | 0.00 | 0.00 | 0.00 | 99 | 1009.8 |
| 20260510063421 | 49 | 265 | 0.0 | 0.0 | 0.00 | 0.00 | 0.00 | 99 | 1009.8 |
| 20260510062919 | 49 | 266 | 0.0 | 0.0 | 0.00 | 0.00 | 0.00 | 99 | 1009.9 |
| 20260510062413 | 49 | 266 | 1.0 | 1.0 | 0.00 | 0.00 | 0.00 | 99 | 1009.8 |
| 20260510061904 | 49 | 266 | 0.0 | 0.0 | 0.00 | 0.00 | 0.00 | 99 | 1010.0 |
| 20260510061401 | 49 | 267 | 0.0 | 0.0 | 0.00 | 0.00 | 0.00 | 99 | 1010.2 |
| 20260510060856 | 48 | 267 | 0.0 | 0.0 | 0.00 | 0.00 | 0.00 | 99 | 1010.3 |
| 20260510060353 | 48 | 266 | 1.0 | 1.0 | 0.00 | 0.00 | 0.00 | 99 | 1010.2 |
| 20260510055849 | 48 | 267 | 0.0 | 0.0 | 0.00 | 0.00 | 0.00 | 99 | 1010.2 |
| 20260510055349 | 48 | 255 | 1.0 | 1.0 | 0.00 | 0.00 | 0.00 | 99 | 1010.2 |
| 20260510054843 | 48 | 256 | 1.0 | 1.0 | 0.00 | 0.00 | 0.00 | 99 | 1010.1 |
| 20260510054339 | 48 | 257 | 1.0 | 1.0 | 0.00 | 0.00 | 0.00 | 99 | 1010.0 |
| 20260510053833 | 49 | 270 | 0.0 | 1.0 | 0.00 | 0.00 | 0.00 | 99 | 1009.9 |
| 20260510053329 | 49 | 270 | 0.0 | 1.0 | 0.00 | 0.00 | 0.00 | 99 | 1009.5 |
| 20260510052826 | 49 | 257 | 0.0 | 0.0 | 0.00 | 0.00 | 0.00 | 99 | 1009.5 |
| 20260510052322 | 49 | 256 | 0.0 | 0.0 | 0.00 | 0.00 | 0.00 | 99 | 1009.4 |
| 20260510051818 | 49 | 246 | 1.0 | 1.0 | 0.00 | 0.00 | 0.00 | 99 | 1009.5 |
| 20260510051315 | 48 | 266 | 0.0 | 0.0 | 0.00 | 0.00 | 0.00 | 99 | 1009.4 |
| 20260510050811 | 48 | 265 | 0.0 | 0.0 | 0.00 | 0.00 | 0.00 | 99 | 1009.6 |
| 20260510050303 | 48 | 269 | 0.0 | 0.0 | 0.00 | 0.00 | 0.00 | 99 | 1009.6 |
| 20260510045800 | 49 | 268 | 0.0 | 1.0 | 0.00 | 0.00 | 0.00 | 99 | 1009.5 |
| 20260510045256 | 50 | 269 | 1.0 | 1.0 | 0.00 | 0.00 | 0.00 | 99 | 1009.7 |
| 20260510044754 | 50 | 281 | 0.0 | 0.0 | 0.00 | 0.00 | 0.00 | 99 | 1009.6 |
| 20260510044250 | 50 | 266 | 0.0 | 1.0 | 0.00 | 0.00 | 0.00 | 99 | 1009.7 |
| 20260510043746 | 49 | 266 | 1.0 | 1.0 | 0.00 | 0.00 | 0.00 | 99 | 1009.7 |
| 20260510043242 | 49 | 260 | 1.0 | 1.0 | 0.00 | 0.00 | 0.00 | 99 | 1009.6 |
| 20260510042740 | 49 | 261 | 1.0 | 1.0 | 0.00 | 0.00 | 0.00 | 99 | 1009.6 |
| 20260510042230 | 49 | 252 | 1.0 | 1.0 | 0.00 | 0.00 | 0.00 | 99 | 1009.6 |
| 20260510041727 | 49 | 255 | 0.0 | 0.0 | 0.00 | 0.00 | 0.00 | 99 | 1009.5 |
| 20260510041225 | 49 | 259 | 0.0 | 0.0 | 0.00 | 0.00 | 0.00 | 99 | 1009.5 |
| 20260510040721 | 49 | 251 | 1.0 | 1.0 | 0.00 | 0.00 | 0.00 | 99 | 1009.7 |
| 20260510040218 | 49 | 266 | 1.0 | 1.0 | 0.00 | 0.00 | 0.00 | 99 | 1009.5 |
| 20260510035713 | 50 | 269 | 0.0 | 0.0 | 0.00 | 0.36 | 0.36 | 99 | 1009.5 |
| 20260510035210 | 50 | 269 | 0.0 | 0.0 | 0.00 | 0.36 | 0.36 | 99 | 1009.6 |
| 20260510034705 | 50 | 268 | 0.0 | 0.0 | 0.00 | 0.36 | 0.36 | 99 | 1009.4 |
| 20260510034203 | 51 | 269 | 0.0 | 0.0 | 0.00 | 0.36 | 0.36 | 99 | 1009.3 |
| 20260510033658 | 51 | 268 | 0.0 | 0.0 | 0.00 | 0.36 | 0.36 | 99 | 1009.2 |
| 20260510033157 | 51 | 278 | 0.0 | 1.0 | 0.00 | 0.36 | 0.36 | 99 | 1009.4 |
| 20260510032652 | 51 | 278 | 0.0 | 0.0 | 0.00 | 0.36 | 0.36 | 99 | 1009.4 |
| 20260510032148 | 51 | 264 | 0.0 | 1.0 | 0.00 | 0.36 | 0.36 | 99 | 1009.4 |
| 20260510031643 | 51 | 276 | 1.0 | 1.0 | 0.00 | 0.36 | 0.36 | 99 | 1009.4 |
| 20260510031140 | 50 | 275 | 0.0 | 1.0 | 0.00 | 0.36 | 0.36 | 99 | 1009.4 |
| 20260510030634 | 50 | 266 | 0.0 | 0.0 | 0.00 | 0.36 | 0.36 | 99 | 1009.5 |
| 20260510030132 | 49 | 261 | 0.0 | 0.0 | 0.00 | 0.36 | 0.36 | 99 | 1009.3 |
| 20260510025629 | 50 | 257 | 0.0 | 0.0 | 0.00 | 0.36 | 0.36 | 99 | 1009.7 |
| 20260510025126 | 50 | 261 | 1.0 | 1.0 | 0.00 | 0.36 | 0.36 | 99 | 1009.5 |
| 20260510024623 | 50 | 263 | 1.0 | 1.0 | 0.00 | 0.36 | 0.36 | 99 | 1009.6 |
| 20260510024119 | 49 | 286 | 0.0 | 0.0 | 0.00 | 0.36 | 0.36 | 99 | 1009.6 |
| 20260510023615 | 49 | 261 | 0.0 | 0.0 | 0.00 | 0.36 | 0.36 | 99 | 1009.5 |
| 20260510023113 | 49 | 255 | 1.0 | 2.0 | 0.00 | 0.36 | 0.36 | 99 | 1009.4 |
| 20260510022613 | 49 | 261 | 0.0 | 0.0 | 0.00 | 0.36 | 0.36 | 99 | 1009.5 |
| 20260510022108 | 49 | 261 | 0.0 | 0.0 | 0.00 | 0.36 | 0.36 | 99 | 1009.4 |
| 20260510021604 | 50 | 261 | 0.0 | 0.0 | 0.00 | 0.36 | 0.36 | 99 | 1009.4 |
| 20260510021102 | 50 | 261 | 0.0 | 0.0 | 0.00 | 0.36 | 0.36 | 99 | 1009.3 |
| 20260510020555 | 50 | 261 | 0.0 | 0.0 | 0.00 | 0.36 | 0.36 | 99 | 1009.6 |
| 20260510020051 | 50 | 264 | 0.0 | 1.0 | 0.00 | 0.36 | 0.36 | 99 | 1009.6 |
| 20260510015547 | 50 | 263 | 0.0 | 0.0 | 0.00 | 0.36 | 0.36 | 98 | 1009.4 |
| 20260510015044 | 51 | 267 | 0.0 | 0.0 | 0.00 | 0.36 | 0.36 | 98 | 1009.3 |
| 20260510014540 | 51 | 267 | 0.0 | 0.0 | 0.00 | 0.36 | 0.36 | 98 | 1009.3 |
| 20260510014037 | 51 | 267 | 0.0 | 0.0 | 0.00 | 0.36 | 0.36 | 98 | 1009.3 |
| 20260510013532 | 51 | 267 | 0.0 | 0.0 | 0.00 | 0.36 | 0.36 | 98 | 1009.3 |
| 20260510013028 | 51 | 267 | 0.0 | 0.0 | 0.00 | 0.36 | 0.36 | 97 | 1009.2 |
| 20260510012522 | 51 | 271 | 0.0 | 0.0 | 0.00 | 0.36 | 0.36 | 97 | 1009.3 |
| 20260510012019 | 52 | 282 | 0.0 | 0.0 | 0.00 | 0.36 | 0.36 | 96 | 1009.1 |
| 20260510011518 | 52 | 271 | 0.0 | 0.0 | 0.00 | 0.36 | 0.36 | 96 | 1009.1 |
| 20260510011014 | 53 | 280 | 0.0 | 0.0 | 0.00 | 0.36 | 0.36 | 95 | 1009.1 |
| 20260510010511 | 53 | 276 | 0.0 | 0.0 | 0.00 | 0.36 | 0.36 | 95 | 1008.8 |
| 20260510010008 | 53 | 283 | 1.0 | 1.0 | 0.00 | 0.36 | 0.36 | 95 | 1008.9 |
| 20260510005504 | 53 | 302 | 0.0 | 0.0 | 0.00 | 0.36 | 0.36 | 95 | 1008.7 |
| 20260510005002 | 53 | 303 | 1.0 | 1.0 | 0.00 | 0.36 | 0.36 | 95 | 1008.6 |
| 20260510004459 | 53 | 288 | 1.0 | 1.0 | 0.00 | 0.36 | 0.36 | 94 | 1008.7 |
| 20260510003957 | 54 | 275 | 1.0 | 2.0 | 0.00 | 0.36 | 0.36 | 94 | 1008.8 |
| 20260510003453 | 54 | 272 | 0.0 | 1.0 | 0.00 | 0.36 | 0.36 | 95 | 1008.7 |
| 20260510002948 | 54 | 265 | 2.0 | 2.0 | 0.00 | 0.36 | 0.36 | 95 | 1008.5 |
| 20260510002444 | 54 | 267 | 1.0 | 1.0 | 0.00 | 0.36 | 0.36 | 95 | 1008.4 |
| 20260510001941 | 54 | 224 | 2.0 | 2.0 | 0.00 | 0.36 | 0.36 | 94 | 1008.2 |
| 20260510001438 | 54 | 302 | 0.0 | 1.0 | 0.00 | 0.36 | 0.36 | 94 | 1008.3 |
| 20260510000936 | 54 | 64 | 4.0 | 4.0 | 0.00 | 0.36 | 0.36 | 94 | 1008.3 |
| 20260510000427 | 54 | 218 | 2.0 | 3.0 | 0.00 | 0.36 | 0.36 | 94 | 1008.5 |
| 20260509235923 | 54 | 183 | 2.0 | 3.0 | 0.00 | 0.36 | 0.36 | 94 | 1008.4 |
| 20260509235420 | 54 | 304 | 0.0 | 1.0 | 0.00 | 0.36 | 0.36 | 94 | 1008.2 |
| 20260509234916 | 54 | 239 | 1.0 | 2.0 | 0.00 | 0.36 | 0.36 | 93 | 1008.4 |
| 20260509234414 | 54 | 240 | 2.0 | 2.0 | 0.00 | 0.36 | 0.36 | 93 | 1008.3 |
| 20260509233912 | 54 | 306 | 2.0 | 3.0 | 0.00 | 0.36 | 0.36 | 93 | 1008.2 |
| 20260509233409 | 55 | 196 | 1.0 | 2.0 | 0.00 | 0.36 | 0.36 | 93 | 1008.1 |
| 20260509232904 | 55 | 341 | 3.0 | 4.0 | 0.00 | 0.36 | 0.36 | 93 | 1008.1 |
| 20260509232402 | 55 | 276 | 2.0 | 2.0 | 0.00 | 0.36 | 0.36 | 93 | 1007.8 |
| 20260509231857 | 55 | 285 | 4.0 | 6.0 | 0.00 | 0.36 | 0.36 | 93 | 1008.0 |
| 20260509231355 | 55 | 273 | 0.0 | 1.0 | 0.00 | 0.36 | 0.36 | 94 | 1008.4 |
| 20260509230853 | 55 | 285 | 1.0 | 1.0 | 0.00 | 0.36 | 0.36 | 94 | 1008.4 |
| 20260509230349 | 55 | 86 | 2.0 | 2.0 | 0.00 | 0.36 | 0.36 | 94 | 1008.5 |
| 20260509225845 | 55 | 286 | 1.0 | 2.0 | 0.00 | 0.36 | 0.36 | 95 | 1008.2 |
| 20260509225342 | 55 | 214 | 2.0 | 2.0 | 0.00 | 0.36 | 0.36 | 94 | 1008.6 |
| 20260509224837 | 55 | 276 | 1.0 | 1.0 | 0.00 | 0.36 | 0.36 | 94 | 1008.4 |
| 20260509224333 | 55 | 293 | 3.0 | 3.0 | 0.00 | 0.36 | 0.36 | 94 | 1008.2 |
| 20260509223831 | 55 | 249 | 1.0 | 2.0 | 0.00 | 0.36 | 0.36 | 94 | 1008.1 |
| 20260509223327 | 55 | 264 | 2.0 | 2.0 | 0.00 | 0.36 | 0.36 | 94 | 1008.3 |
| 20260509222825 | 55 | 274 | 1.0 | 2.0 | 0.00 | 0.36 | 0.36 | 95 | 1008.4 |
| 20260509222320 | 55 | 272 | 0.0 | 1.0 | 0.00 | 0.36 | 0.36 | 95 | 1008.4 |
| 20260509221815 | 55 | 298 | 0.0 | 0.0 | 0.00 | 0.36 | 0.36 | 96 | 1008.4 |
| 20260509221313 | 55 | 279 | 0.0 | 0.0 | 0.00 | 0.36 | 0.36 | 96 | 1008.3 |
| 20260509220808 | 55 | 271 | 0.0 | 0.0 | 0.00 | 0.36 | 0.36 | 96 | 1008.4 |
| 20260509220305 | 55 | 269 | 0.0 | 0.0 | 0.00 | 0.36 | 0.36 | 97 | 1008.3 |
| 20260509215800 | 55 | 283 | 0.0 | 0.0 | 0.00 | 0.36 | 0.36 | 97 | 1008.4 |
| 20260509215257 | 55 | 242 | 0.0 | 0.0 | 0.00 | 0.36 | 0.36 | 97 | 1008.5 |
| 20260509214754 | 55 | 279 | 0.0 | 1.0 | 0.00 | 0.36 | 0.36 | 98 | 1008.8 |
| 20260509214251 | 55 | 270 | 1.0 | 1.0 | 0.00 | 0.36 | 0.36 | 98 | 1008.7 |
| 20260509213748 | 55 | 276 | 0.0 | 0.0 | 0.00 | 0.36 | 0.36 | 98 | 1008.9 |
| 20260509213244 | 55 | 283 | 0.0 | 0.0 | 0.00 | 0.36 | 0.36 | 98 | 1008.9 |
| 20260509212741 | 55 | 283 | 1.0 | 1.0 | 0.07 | 0.36 | 0.36 | 98 | 1008.9 |
| 20260509212239 | 55 | 284 | 0.0 | 0.0 | 0.07 | 0.36 | 0.36 | 98 | 1008.9 |
| 20260509211734 | 55 | 279 | 0.0 | 0.0 | 0.00 | 0.35 | 0.35 | 98 | 1008.8 |
| 20260509211231 | 55 | 279 | 0.0 | 0.0 | 0.00 | 0.35 | 0.35 | 98 | 1008.9 |
| 20260509210727 | 55 | 279 | 0.0 | 0.0 | 0.00 | 0.35 | 0.35 | 98 | 1008.8 |
| 20260509210225 | 54 | 278 | 0.0 | 1.0 | 0.05 | 0.35 | 0.35 | 98 | 1008.9 |
| 20260509205725 | 54 | 281 | 0.0 | 0.0 | 0.05 | 0.35 | 0.35 | 98 | 1008.8 |
| 20260509205224 | 54 | 272 | 0.0 | 0.0 | 0.00 | 0.34 | 0.34 | 97 | 1009.0 |
| 20260509204721 | 54 | 283 | 0.0 | 0.0 | 0.12 | 0.34 | 0.34 | 97 | 1009.1 |
| 20260509204217 | 55 | 280 | 0.0 | 0.0 | 0.19 | 0.34 | 0.34 | 97 | 1009.1 |
| 20260509203713 | 55 | 293 | 0.0 | 0.0 | 0.12 | 0.32 | 0.32 | 97 | 1009.1 |
| 20260509203212 | 55 | 292 | 0.0 | 0.0 | 0.05 | 0.31 | 0.31 | 97 | 1009.1 |
| 20260509202706 | 55 | 292 | 0.0 | 0.0 | 0.07 | 0.30 | 0.30 | 97 | 1009.2 |
| 20260509202201 | 55 | 293 | 0.0 | 0.0 | 0.07 | 0.30 | 0.30 | 97 | 1009.2 |
| 20260509201657 | 55 | 292 | 0.0 | 0.0 | 0.05 | 0.29 | 0.29 | 97 | 1009.4 |
| 20260509201154 | 55 | 307 | 0.0 | 0.0 | 0.05 | 0.29 | 0.29 | 97 | 1009.2 |
| 20260509200650 | 55 | 299 | 0.0 | 0.0 | 0.07 | 0.28 | 0.28 | 97 | 1009.5 |
| 20260509200146 | 55 | 289 | 0.0 | 0.0 | 0.12 | 0.28 | 0.28 | 97 | 1009.4 |
| 20260509195642 | 55 | 285 | 0.0 | 0.0 | 0.12 | 0.27 | 0.27 | 97 | 1009.6 |
| 20260509195137 | 55 | 284 | 1.0 | 1.0 | 0.12 | 0.26 | 0.26 | 97 | 1009.6 |
| 20260509194636 | 56 | 296 | 0.0 | 1.0 | 0.12 | 0.25 | 0.25 | 97 | 1009.5 |
| 20260509194134 | 57 | 279 | 0.0 | 1.0 | 0.14 | 0.24 | 0.24 | 97 | 1009.9 |
| 20260509193630 | 56 | 271 | 0.0 | 0.0 | 0.07 | 0.23 | 0.23 | 97 | 1009.8 |
| 20260509193125 | 56 | 280 | 0.0 | 0.0 | 0.12 | 0.23 | 0.23 | 97 | 1009.9 |
| 20260509192623 | 55 | 280 | 0.0 | 0.0 | 0.05 | 0.22 | 0.22 | 96 | 1009.6 |
| 20260509192117 | 56 | 293 | 0.0 | 0.0 | 0.07 | 0.21 | 0.21 | 97 | 1009.8 |
| 20260509191612 | 56 | 295 | 0.0 | 0.0 | 0.07 | 0.21 | 0.21 | 97 | 1009.9 |
| 20260509191109 | 56 | 279 | 0.0 | 0.0 | 0.12 | 0.21 | 0.21 | 97 | 1010.0 |
| 20260509190605 | 56 | 306 | 0.0 | 0.0 | 0.12 | 0.20 | 0.20 | 97 | 1010.1 |
| 20260509185600 | 57 | 281 | 0.0 | 1.0 | 0.05 | 0.18 | 0.18 | 97 | 1010.2 |
| 20260509185056 | 57 | 303 | 1.0 | 1.0 | 0.07 | 0.17 | 0.17 | 97 | 1010.4 |
| 20260509184555 | 57 | 273 | 1.0 | 1.0 | 0.07 | 0.17 | 0.17 | 97 | 1010.3 |
| 20260509184051 | 58 | 279 | 0.0 | 0.0 | 0.05 | 0.16 | 0.16 | 97 | 1010.3 |
| 20260509183546 | 57 | 278 | 0.0 | 0.0 | 0.05 | 0.16 | 0.16 | 97 | 1010.2 |
| 20260509183042 | 57 | 276 | 0.0 | 0.0 | 0.00 | 0.15 | 0.15 | 97 | 1010.3 |
| 20260509182539 | 58 | 285 | 0.0 | 0.0 | 0.00 | 0.15 | 0.15 | 97 | 1010.3 |
| 20260509182036 | 57 | 289 | 0.0 | 0.0 | 0.07 | 0.15 | 0.15 | 97 | 1010.2 |
| 20260509181534 | 57 | 329 | 0.0 | 0.0 | 0.24 | 0.15 | 0.15 | 96 | 1010.1 |
| 20260509181031 | 57 | 278 | 0.0 | 0.0 | 0.24 | 0.14 | 0.14 | 96 | 1010.1 |
| 20260509180527 | 57 | 267 | 0.0 | 0.0 | 0.19 | 0.12 | 0.12 | 95 | 1010.1 |
| 20260509180025 | 57 | 268 | 0.0 | 0.0 | 0.12 | 0.10 | 0.10 | 94 | 1009.7 |
| 20260509175519 | 58 | 267 | 0.0 | 0.0 | 0.05 | 0.09 | 0.09 | 94 | 1009.6 |
| 20260509175016 | 57 | 266 | 0.0 | 0.0 | 0.05 | 0.09 | 0.09 | 94 | 1009.6 |
| 20260509174513 | 57 | 302 | 0.0 | 0.0 | 0.07 | 0.08 | 0.08 | 93 | 1009.6 |
| 20260509174008 | 58 | 258 | 0.0 | 0.0 | 0.07 | 0.08 | 0.08 | 92 | 1009.5 |
| 20260509173502 | 58 | 325 | 0.0 | 0.0 | 0.00 | 0.07 | 0.07 | 91 | 1009.4 |
| 20260509172959 | 59 | 293 | 0.0 | 0.0 | 0.00 | 0.07 | 0.07 | 90 | 1009.3 |
| 20260509172456 | 59 | 293 | 0.0 | 0.0 | 0.00 | 0.07 | 0.07 | 90 | 1009.4 |
| 20260509171952 | 59 | 293 | 0.0 | 0.0 | 0.00 | 0.07 | 0.07 | 90 | 1009.4 |
| 20260509171448 | 59 | 293 | 0.0 | 0.0 | 0.00 | 0.07 | 0.07 | 90 | 1009.4 |
| 20260509170945 | 59 | 293 | 0.0 | 0.0 | 0.00 | 0.07 | 0.07 | 90 | 1009.5 |
| 20260509170440 | 58 | 268 | 0.0 | 0.0 | 0.00 | 0.07 | 0.07 | 90 | 1009.7 |
| 20260509165936 | 58 | 299 | 0.0 | 0.0 | 0.00 | 0.07 | 0.07 | 90 | 1009.5 |
| 20260509165431 | 57 | 339 | 0.0 | 0.0 | 0.00 | 0.07 | 0.07 | 89 | 1009.7 |
| 20260509164926 | 57 | 270 | 0.0 | 0.0 | 0.00 | 0.07 | 0.07 | 90 | 1009.9 |
| 20260509164423 | 57 | 336 | 0.0 | 1.0 | 0.00 | 0.07 | 0.07 | 90 | 1009.8 |